Location: Madison
(43.0730°N, 89.3819°W)
Time: 05:54:18
(UTC-06:00)

ISS - Pass Details

Date: 23 January 2019
Orbit: 403 x 411 km, 51.6° (Epoch: 23 February)

Event Time Altitude Azimuth Distance (km) Brightness Sun altitude
Rises 19:15:29 0° 250° (WSW) 2,328 1.2 -24.9°
Reaches altitude 10° 19:17:36 10° 256° (WSW) 1,472 0.0 -25.3°
Enters shadow 19:19:29 29° 273° (W) 784 -1.8 -25.7°
